"Time","Value","Approval","myLocation"
"2023-03-30 00:00",19.637276424951,"Approved","OW442"
"2023-03-30 01:00",19.6362961667924,"Approved","OW442"
"2023-03-30 02:00",19.6363159086339,"Approved","OW442"
"2023-03-30 03:00",19.6363356504754,"Approved","OW442"
"2023-03-30 04:00",19.6363553923169,"Approved","OW442"
"2023-03-30 05:00",19.6383751341583,"Approved","OW442"
"2023-03-30 06:00",19.6383948759998,"Approved","OW442"
"2023-03-30 07:00",19.6384146178413,"Approved","OW442"
"2023-03-30 08:00",19.6394343596828,"Approved","OW442"
"2023-03-30 09:00",19.6394541015242,"Approved","OW442"
"2023-03-30 10:00",19.6394738433657,"Approved","OW442"
"2023-03-30 11:00",19.6394935852072,"Approved","OW442"
"2023-03-30 12:00",19.6405133270487,"Approved","OW442"
"2023-03-30 13:00",19.6405330688902,"Approved","OW442"
"2023-03-30 14:00",19.6415528107316,"Approved","OW442"
"2023-03-30 15:00",19.6425725525731,"Approved","OW442"
"2023-03-30 16:00",19.6435922944146,"Approved","OW442"
"2023-03-30 17:00",19.6436120362561,"Approved","OW442"
"2023-03-30 18:00",19.6426317780975,"Approved","OW442"
"2023-03-30 19:00",19.641651519939,"Approved","OW442"
"2023-03-30 20:00",19.6396712617805,"Approved","OW442"
"2023-03-30 21:00",19.6376910036219,"Approved","OW442"
"2023-03-30 22:00",19.6367107454634,"Approved","OW442"
"2023-03-30 23:00",19.6347304873049,"Approved","OW442"
"2023-03-31 00:00",19.6337502291464,"Approved","OW442"
"2023-03-31 01:00",19.6337699709878,"Approved","OW442"
"2023-03-31 02:00",19.6347897128293,"Approved","OW442"
"2023-03-31 03:00",19.6368094546708,"Approved","OW442"
"2023-03-31 04:00",19.6408291965123,"Approved","OW442"
"2023-03-31 05:00",19.6438489383538,"Approved","OW442"
"2023-03-31 06:00",19.6478686801952,"Approved","OW442"
"2023-03-31 07:00",19.6508884220367,"Approved","OW442"
"2023-03-31 08:00",19.6519081638782,"Approved","OW442"
"2023-03-31 09:00",19.6549279057196,"Approved","OW442"
"2023-03-31 10:00",19.6559476475611,"Approved","OW442"
"2023-03-31 11:00",19.6569673894026,"Approved","OW442"
"2023-03-31 12:00",19.6579871312441,"Approved","OW442"
"2023-03-31 13:00",19.6590068730855,"Approved","OW442"
"2023-03-31 14:00",19.659026614927,"Approved","OW442"
"2023-03-31 15:00",19.6600463567685,"Approved","OW442"
"2023-03-31 16:00",19.66106609861,"Approved","OW442"
"2023-03-31 17:00",19.6620858404515,"Approved","OW442"
"2023-03-31 18:00",19.6621055822929,"Approved","OW442"
"2023-03-31 19:00",19.6621253241344,"Approved","OW442"
"2023-03-31 20:00",19.6621450659759,"Approved","OW442"
"2023-03-31 21:00",19.6631648078174,"Approved","OW442"
"2023-03-31 22:00",19.6621845496588,"Approved","OW442"
"2023-03-31 23:00",19.6612042915003,"Approved","OW442"
"2023-04-01 00:00",19.6612240333418,"Approved","OW442"
"2023-04-01 01:00",19.6612437751833,"Approved","OW442"
"2023-04-01 02:00",19.6612635170247,"Approved","OW442"
"2023-04-01 03:00",19.6592832588662,"Approved","OW442"
"2023-04-01 04:00",19.6583030007077,"Approved","OW442"
"2023-04-01 05:00",19.6573227425492,"Approved","OW442"
"2023-04-01 06:00",19.6543424843906,"Approved","OW442"
"2023-04-01 07:00",19.6523622262321,"Approved","OW442"
"2023-04-01 08:00",19.6503819680736,"Approved","OW442"
"2023-04-01 09:00",19.6484017099151,"Approved","OW442"
"2023-04-01 10:00",19.6464214517565,"Approved","OW442"
"2023-04-01 11:00",19.644441193598,"Approved","OW442"
"2023-04-01 12:00",19.6434609354395,"Approved","OW442"
"2023-04-01 13:00",19.643480677281,"Approved","OW442"
"2023-04-01 14:00",19.6475004191224,"Approved","OW442"
"2023-04-01 15:00",19.6495201609639,"Approved","OW442"
"2023-04-01 16:00",19.6495399028054,"Approved","OW442"
"2023-04-01 17:00",19.6505596446469,"Approved","OW442"
"2023-04-01 18:00",19.6495793864883,"Approved","OW442"
"2023-04-01 19:00",19.6495991283298,"Approved","OW442"
"2023-04-01 20:00",19.6496188701713,"Approved","OW442"
"2023-04-01 21:00",19.6496386120128,"Approved","OW442"
"2023-04-01 22:00",19.6486583538542,"Approved","OW442"
"2023-04-01 23:00",19.6496780956957,"Approved","OW442"
"2023-04-02 00:00",19.6496978375372,"Approved","OW442"
"2023-04-02 01:00",19.6517175793787,"Approved","OW442"
"2023-04-02 02:00",19.6537373212201,"Approved","OW442"
"2023-04-02 03:00",19.6577570630616,"Approved","OW442"
"2023-04-02 04:00",19.6607768049031,"Approved","OW442"
"2023-04-02 05:00",19.6637965467446,"Approved","OW442"
"2023-04-02 06:00",19.664816288586,"Approved","OW442"
"2023-04-02 07:00",19.6658360304275,"Approved","OW442"
"2023-04-02 08:00",19.666855772269,"Approved","OW442"
"2023-04-02 09:00",19.6668755141105,"Approved","OW442"
"2023-04-02 10:00",19.6668952559519,"Approved","OW442"
"2023-04-02 11:00",19.6679149977934,"Approved","OW442"
"2023-04-02 12:00",19.6689347396349,"Approved","OW442"
"2023-04-02 13:00",19.6699544814764,"Approved","OW442"
"2023-04-02 14:00",19.6709742233178,"Approved","OW442"
"2023-04-02 15:00",19.6709939651593,"Approved","OW442"
"2023-04-02 16:00",19.6720137070008,"Approved","OW442"
"2023-04-02 17:00",19.6720334488423,"Approved","OW442"
"2023-04-02 18:00",19.6720531906837,"Approved","OW442"
"2023-04-02 19:00",19.6700729325252,"Approved","OW442"
"2023-04-02 20:00",19.6680926743667,"Approved","OW442"
"2023-04-02 21:00",19.6651124162082,"Approved","OW442"
"2023-04-02 22:00",19.6641321580496,"Approved","OW442"
"2023-04-02 23:00",19.6631518998911,"Approved","OW442"
"2023-04-03 00:00",19.6641716417326,"Approved","OW442"
"2023-04-03 01:00",19.6641913835741,"Approved","OW442"
"2023-04-03 02:00",19.6642111254155,"Approved","OW442"
"2023-04-03 03:00",19.665230867257,"Approved","OW442"
"2023-04-03 04:00",19.6672506090985,"Approved","OW442"
"2023-04-03 05:00",19.66927035094,"Approved","OW442"
"2023-04-03 06:00",19.6702900927814,"Approved","OW442"
"2023-04-03 07:00",19.6713098346229,"Approved","OW442"
"2023-04-03 08:00",19.6723295764644,"Approved","OW442"
"2023-04-03 09:00",19.6733493183059,"Approved","OW442"
"2023-04-03 10:00",19.6743690601473,"Approved","OW442"
"2023-04-03 11:00",19.6753888019888,"Approved","OW442"
"2023-04-03 12:00",19.6774085438303,"Approved","OW442"
"2023-04-03 13:00",19.6784282856718,"Approved","OW442"
"2023-04-03 14:00",19.6804480275132,"Approved","OW442"
"2023-04-03 15:00",19.6814677693547,"Approved","OW442"
"2023-04-03 16:00",19.6814875111962,"Approved","OW442"
"2023-04-03 17:00",19.6815072530377,"Approved","OW442"
"2023-04-03 18:00",19.6815269948791,"Approved","OW442"
"2023-04-03 19:00",19.6795467367206,"Approved","OW442"
"2023-04-03 20:00",19.6775664785621,"Approved","OW442"
"2023-04-03 21:00",19.6755862204036,"Approved","OW442"
"2023-04-03 22:00",19.672605962245,"Approved","OW442"
"2023-04-03 23:00",19.6706257040865,"Approved","OW442"
"2023-04-04 00:00",19.670645445928,"Approved","OW442"
"2023-04-04 01:00",19.6726651877695,"Approved","OW442"
"2023-04-04 02:00",19.6736849296109,"Approved","OW442"
"2023-04-04 03:00",19.6767046714524,"Approved","OW442"
"2023-04-04 04:00",19.6797244132939,"Approved","OW442"
"2023-04-04 05:00",19.6797441551354,"Approved","OW442"
"2023-04-04 06:00",19.6807638969768,"Approved","OW442"
"2023-04-04 07:00",19.6807836388183,"Approved","OW442"
"2023-04-04 08:00",19.6818033806598,"Approved","OW442"
"2023-04-04 09:00",19.6828231225013,"Approved","OW442"
"2023-04-04 10:00",19.6828428643427,"Approved","OW442"
"2023-04-04 11:00",19.6838626061842,"Approved","OW442"
"2023-04-04 12:00",19.6848823480257,"Approved","OW442"
"2023-04-04 13:00",19.6859020898672,"Approved","OW442"
"2023-04-04 14:00",19.6879218317086,"Approved","OW442"
"2023-04-04 15:00",19.6899415735501,"Approved","OW442"
"2023-04-04 16:00",19.6909613153916,"Approved","OW442"
"2023-04-04 17:00",19.6919810572331,"Approved","OW442"
"2023-04-04 18:00",19.6920007990745,"Approved","OW442"
"2023-04-04 19:00",19.691020540916,"Approved","OW442"
"2023-04-04 20:00",19.6900402827575,"Approved","OW442"
"2023-04-04 21:00",19.688060024599,"Approved","OW442"
"2023-04-04 22:00",19.6870797664404,"Approved","OW442"
"2023-04-04 23:00",19.6870995082819,"Approved","OW442"
"2023-04-05 00:00",19.6861192501234,"Approved","OW442"
"2023-04-05 01:00",19.6861389919649,"Approved","OW442"
"2023-04-05 02:00",19.6861587338063,"Approved","OW442"
"2023-04-05 03:00",19.6881784756478,"Approved","OW442"
"2023-04-05 04:00",19.6901982174893,"Approved","OW442"
"2023-04-05 05:00",19.6912179593308,"Approved","OW442"
"2023-04-05 06:00",19.6922377011722,"Approved","OW442"
"2023-04-05 07:00",19.6922574430137,"Approved","OW442"
"2023-04-05 08:00",19.6932771848552,"Approved","OW442"
"2023-04-05 09:00",19.6942969266967,"Approved","OW442"
"2023-04-05 10:00",19.6933166685381,"Approved","OW442"
"2023-04-05 11:00",19.6943364103796,"Approved","OW442"
"2023-04-05 12:00",19.6933561522211,"Approved","OW442"
"2023-04-05 13:00",19.6943758940626,"Approved","OW442"
"2023-04-05 14:00",19.695395635904,"Approved","OW442"
"2023-04-05 15:00",19.6954153777455,"Approved","OW442"
"2023-04-05 16:00",19.695435119587,"Approved","OW442"
"2023-04-05 17:00",19.6934548614285,"Approved","OW442"
"2023-04-05 18:00",19.7004746032699,"Approved","OW442"
"2023-04-05 19:00",19.7044943451114,"Approved","OW442"
"2023-04-05 20:00",19.6965140869529,"Approved","OW442"
"2023-04-05 21:00",19.6895338287944,"Approved","OW442"
"2023-04-05 22:00",19.6855535706358,"Approved","OW442"
"2023-04-05 23:00",19.6805733124773,"Approved","OW442"
"2023-04-06 00:00",19.6775930543188,"Approved","OW442"
"2023-04-06 01:00",19.6756127961603,"Approved","OW442"
"2023-04-06 02:00",19.6736325380017,"Approved","OW442"
"2023-04-06 03:00",19.6736522798432,"Approved","OW442"
"2023-04-06 04:00",19.6736720216847,"Approved","OW442"
"2023-04-06 05:00",19.6826917635262,"Approved","OW442"
"2023-04-06 06:00",19.6897115053676,"Approved","OW442"
"2023-04-06 07:00",19.6927312472091,"Approved","OW442"
"2023-04-06 08:00",19.6947509890506,"Approved","OW442"
"2023-04-06 09:00",19.6957707308921,"Approved","OW442"
"2023-04-06 10:00",19.6987904727335,"Approved","OW442"
"2023-04-06 11:00",19.698810214575,"Approved","OW442"
"2023-04-06 12:00",19.6998299564165,"Approved","OW442"
"2023-04-06 13:00",19.698849698258,"Approved","OW442"
"2023-04-06 14:00",19.6998694400994,"Approved","OW442"
"2023-04-06 15:00",19.6928891819409,"Approved","OW442"
"2023-04-06 16:00",19.6889089237824,"Approved","OW442"
"2023-04-06 17:00",19.6869286656239,"Approved","OW442"
"2023-04-06 18:00",19.6849484074653,"Approved","OW442"
"2023-04-06 19:00",19.6839681493068,"Approved","OW442"
"2023-04-06 20:00",19.6809878911483,"Approved","OW442"
"2023-04-06 21:00",19.6800076329898,"Approved","OW442"
"2023-04-06 22:00",19.6800273748312,"Approved","OW442"
"2023-04-06 23:00",19.6770471166727,"Approved","OW442"
"2023-04-07 00:00",19.6750668585142,"Approved","OW442"
"2023-04-07 01:00",19.6720866003557,"Approved","OW442"
"2023-04-07 02:00",19.6721063421971,"Approved","OW442"
"2023-04-07 03:00",19.6711260840386,"Approved","OW442"
"2023-04-07 04:00",19.6711458258801,"Approved","OW442"
"2023-04-07 05:00",19.6711655677216,"Approved","OW442"
"2023-04-07 06:00",19.670185309563,"Approved","OW442"
"2023-04-07 07:00",19.6692050514045,"Approved","OW442"
"2023-04-07 08:00",19.668224793246,"Approved","OW442"
"2023-04-07 09:00",19.6672445350875,"Approved","OW442"
"2023-04-07 10:00",19.6662642769289,"Approved","OW442"
"2023-04-07 11:00",19.6642840187704,"Approved","OW442"
"2023-04-07 12:00",19.6633037606119,"Approved","OW442"
"2023-04-07 13:00",19.6623235024534,"Approved","OW442"
"2023-04-07 14:00",19.6623432442948,"Approved","OW442"
"2023-04-07 15:00",19.6633629861363,"Approved","OW442"
"2023-04-07 16:00",19.6643827279778,"Approved","OW442"
"2023-04-07 17:00",19.6644024698193,"Approved","OW442"
"2023-04-07 18:00",19.6644222116607,"Approved","OW442"
"2023-04-07 19:00",19.6644419535022,"Approved","OW442"
"2023-04-07 20:00",19.6644616953437,"Approved","OW442"
"2023-04-07 21:00",19.6634814371852,"Approved","OW442"
"2023-04-07 22:00",19.6605011790266,"Approved","OW442"
"2023-04-07 23:00",19.6595209208681,"Approved","OW442"
"2023-04-08 00:00",19.6585406627096,"Approved","OW442"
"2023-04-08 01:00",19.6575604045511,"Approved","OW442"
"2023-04-08 02:00",19.6575801463925,"Approved","OW442"
"2023-04-08 03:00",19.658599888234,"Approved","OW442"
"2023-04-08 04:00",19.6606196300755,"Approved","OW442"
"2023-04-08 05:00",19.662639371917,"Approved","OW442"
"2023-04-08 06:00",19.6646591137584,"Approved","OW442"
"2023-04-08 07:00",19.6656788555999,"Approved","OW442"
"2023-04-08 08:00",19.6666985974414,"Approved","OW442"
"2023-04-08 09:00",19.6677183392829,"Approved","OW442"
"2023-04-08 10:00",19.6697380811243,"Approved","OW442"
"2023-04-08 11:00",19.6717578229658,"Approved","OW442"
"2023-04-08 12:00",19.6727775648073,"Approved","OW442"
"2023-04-08 13:00",19.6737973066488,"Approved","OW442"
"2023-04-08 14:00",19.6758170484902,"Approved","OW442"
"2023-04-08 15:00",19.6778367903317,"Approved","OW442"
"2023-04-08 16:00",19.6798565321732,"Approved","OW442"
"2023-04-08 17:00",19.6818762740147,"Approved","OW442"
"2023-04-08 18:00",19.6828960158561,"Approved","OW442"
"2023-04-08 19:00",19.6839157576976,"Approved","OW442"
"2023-04-08 20:00",19.6849354995391,"Approved","OW442"
"2023-04-08 21:00",19.6859552413806,"Approved","OW442"
"2023-04-08 22:00",19.685974983222,"Approved","OW442"
"2023-04-08 23:00",19.6859947250635,"Approved","OW442"
"2023-04-09 00:00",19.686014466905,"Approved","OW442"
"2023-04-09 01:00",19.6850342087465,"Approved","OW442"
"2023-04-09 02:00",19.6860539505879,"Approved","OW442"
"2023-04-09 03:00",19.6870736924294,"Approved","OW442"
"2023-04-09 04:00",19.6890934342709,"Approved","OW442"
"2023-04-09 05:00",19.6921131761124,"Approved","OW442"
"2023-04-09 06:00",19.6931329179538,"Approved","OW442"
"2023-04-09 07:00",19.6941526597953,"Approved","OW442"
"2023-04-09 08:00",19.6951724016368,"Approved","OW442"
"2023-04-09 09:00",19.6951921434783,"Approved","OW442"
"2023-04-09 10:00",19.6942118853197,"Approved","OW442"
"2023-04-09 11:00",19.6942316271612,"Approved","OW442"
"2023-04-09 12:00",19.6922513690027,"Approved","OW442"
"2023-04-09 13:00",19.6912711108442,"Approved","OW442"
"2023-04-09 14:00",19.6892908526856,"Approved","OW442"
"2023-04-09 15:00",19.6903105945271,"Approved","OW442"
"2023-04-09 16:00",19.6893303363686,"Approved","OW442"
"2023-04-09 17:00",19.6873500782101,"Approved","OW442"
"2023-04-09 18:00",19.6883698200515,"Approved","OW442"
"2023-04-09 19:00",19.685389561893,"Approved","OW442"
"2023-04-09 20:00",19.6874093037345,"Approved","OW442"
"2023-04-09 21:00",19.683429045576,"Approved","OW442"
"2023-04-09 22:00",19.6794487874174,"Approved","OW442"
"2023-04-09 23:00",19.6784685292589,"Approved","OW442"
"2023-04-10 00:00",19.6744882711004,"Approved","OW442"
"2023-04-10 01:00",19.6715080129419,"Approved","OW442"
"2023-04-10 02:00",19.6715277547834,"Approved","OW442"
"2023-04-10 03:00",19.6695474966248,"Approved","OW442"
"2023-04-10 04:00",19.6725672384663,"Approved","OW442"
"2023-04-10 05:00",19.6745869803078,"Approved","OW442"
"2023-04-10 06:00",19.6776067221492,"Approved","OW442"
"2023-04-10 07:00",19.6836264639907,"Approved","OW442"
"2023-04-10 08:00",19.6896462058322,"Approved","OW442"
"2023-04-10 09:00",19.6946659476737,"Approved","OW442"
"2023-04-10 10:00",19.6966856895151,"Approved","OW442"
"2023-04-10 11:00",19.6967054313566,"Approved","OW442"
"2023-04-10 12:00",19.6967251731981,"Approved","OW442"
"2023-04-10 13:00",19.6967449150396,"Approved","OW442"
"2023-04-10 14:00",19.695764656881,"Approved","OW442"
"2023-04-10 15:00",19.6947843987225,"Approved","OW442"
"2023-04-10 16:00",19.693804140564,"Approved","OW442"
"2023-04-10 17:00",19.6928238824055,"Approved","OW442"
"2023-04-10 18:00",19.692843624247,"Approved","OW442"
"2023-04-10 19:00",19.6918633660884,"Approved","OW442"
"2023-04-10 20:00",19.6898831079299,"Approved","OW442"
"2023-04-10 21:00",19.6879028497714,"Approved","OW442"
"2023-04-10 22:00",19.6869225916128,"Approved","OW442"
"2023-04-10 23:00",19.6849423334543,"Approved","OW442"
"2023-04-11 00:00",19.6829620752958,"Approved","OW442"
"2023-04-11 01:00",19.6799818171373,"Approved","OW442"
"2023-04-11 02:00",19.6760015589788,"Approved","OW442"
"2023-04-11 03:00",19.6740213008202,"Approved","OW442"
"2023-04-11 04:00",19.6730410426617,"Approved","OW442"
"2023-04-11 05:00",19.6710607845032,"Approved","OW442"
"2023-04-11 06:00",19.6680805263447,"Approved","OW442"
"2023-04-11 07:00",19.6661002681861,"Approved","OW442"
"2023-04-11 08:00",19.6661200100276,"Approved","OW442"
"2023-04-11 09:00",19.6651397518691,"Approved","OW442"
"2023-04-11 10:00",19.6641594937105,"Approved","OW442"
"2023-04-11 11:00",19.664179235552,"Approved","OW442"
"2023-04-11 12:00",19.6641989773935,"Approved","OW442"
"2023-04-11 13:00",19.663218719235,"Approved","OW442"
"2023-04-11 14:00",19.6642384610765,"Approved","OW442"
"2023-04-11 15:00",19.6662582029179,"Approved","OW442"
"2023-04-11 16:00",19.6672779447594,"Approved","OW442"
"2023-04-11 17:00",19.6682976866009,"Approved","OW442"
"2023-04-11 18:00",19.6703174284424,"Approved","OW442"
"2023-04-11 19:00",19.6713371702838,"Approved","OW442"
"2023-04-11 20:00",19.6713569121253,"Approved","OW442"
"2023-04-11 21:00",19.6713766539668,"Approved","OW442"
"2023-04-11 22:00",19.6733963958083,"Approved","OW442"
"2023-04-11 23:00",19.6764161376497,"Approved","OW442"
"2023-04-12 00:00",19.6794358794912,"Approved","OW442"
"2023-04-12 01:00",19.6784556213327,"Approved","OW442"
"2023-04-12 02:00",19.6804753631742,"Approved","OW442"
"2023-04-12 03:00",19.6824951050156,"Approved","OW442"
"2023-04-12 04:00",19.6855148468571,"Approved","OW442"
"2023-04-12 05:00",19.6885345886986,"Approved","OW442"
"2023-04-12 06:00",19.6905543305401,"Approved","OW442"
"2023-04-12 07:00",19.6905740723815,"Approved","OW442"
"2023-04-12 08:00",19.691593814223,"Approved","OW442"
"2023-04-12 09:00",19.6916135560645,"Approved","OW442"
"2023-04-12 10:00",19.690633297906,"Approved","OW442"
"2023-04-12 11:00",19.6906530397474,"Approved","OW442"
"2023-04-12 12:00",19.6916727815889,"Approved","OW442"
"2023-04-12 13:00",19.6916925234304,"Approved","OW442"
"2023-04-12 14:00",19.6927122652719,"Approved","OW442"
"2023-04-12 15:00",19.6917320071133,"Approved","OW442"
"2023-04-12 16:00",19.6917517489548,"Approved","OW442"
"2023-04-12 17:00",19.6917714907963,"Approved","OW442"
"2023-04-12 18:00",19.6917912326378,"Approved","OW442"
"2023-04-12 19:00",19.6918109744792,"Approved","OW442"
"2023-04-12 20:00",19.6908307163207,"Approved","OW442"
"2023-04-12 21:00",19.6898504581622,"Approved","OW442"
"2023-04-12 22:00",19.6888702000037,"Approved","OW442"
"2023-04-12 23:00",19.6878899418451,"Approved","OW442"
"2023-04-13 00:00",19.6849096836866,"Approved","OW442"
"2023-04-13 01:00",19.6839294255281,"Approved","OW442"
"2023-04-13 02:00",19.6829491673696,"Approved","OW442"
"2023-04-13 03:00",19.682968909211,"Approved","OW442"
"2023-04-13 04:00",19.6839886510525,"Approved","OW442"
"2023-04-13 05:00",19.684008392894,"Approved","OW442"
"2023-04-13 06:00",19.6840281347355,"Approved","OW442"
"2023-04-13 07:00",19.6840478765769,"Approved","OW442"
"2023-04-13 08:00",19.6850676184184,"Approved","OW442"
"2023-04-13 09:00",19.6840873602599,"Approved","OW442"
"2023-04-13 10:00",19.6841071021014,"Approved","OW442"
"2023-04-13 11:00",19.6841268439428,"Approved","OW442"
"2023-04-13 12:00",19.6851465857843,"Approved","OW442"
"2023-04-13 13:00",19.6851663276258,"Approved","OW442"
"2023-04-13 14:00",19.6861860694673,"Approved","OW442"
"2023-04-13 15:00",19.6862058113087,"Approved","OW442"
"2023-04-13 16:00",19.6872255531502,"Approved","OW442"
"2023-04-13 17:00",19.6862452949917,"Approved","OW442"
"2023-04-13 18:00",19.6862650368332,"Approved","OW442"
"2023-04-13 19:00",19.6892847786746,"Approved","OW442"
"2023-04-13 20:00",19.6883045205161,"Approved","OW442"
"2023-04-13 21:00",19.6893242623576,"Approved","OW442"
"2023-04-13 22:00",19.6833440041991,"Approved","OW442"
"2023-04-13 23:00",19.6793637460405,"Approved","OW442"
"2023-04-14 00:00",19.678383487882,"Approved","OW442"
"2023-04-14 01:00",19.6794032297235,"Approved","OW442"
"2023-04-14 02:00",19.679422971565,"Approved","OW442"
"2023-04-14 03:00",19.6804427134064,"Approved","OW442"
"2023-04-14 04:00",19.6824624552479,"Approved","OW442"
"2023-04-14 05:00",19.6844821970894,"Approved","OW442"
"2023-04-14 06:00",19.6855019389309,"Approved","OW442"
"2023-04-14 07:00",19.6865216807723,"Approved","OW442"
"2023-04-14 08:00",19.6875414226138,"Approved","OW442"
"2023-04-14 09:00",19.6875611644553,"Approved","OW442"
"2023-04-14 10:00",19.6885809062968,"Approved","OW442"
"2023-04-14 11:00",19.6896006481382,"Approved","OW442"
"2023-04-14 12:00",19.6906203899797,"Approved","OW442"
"2023-04-14 13:00",19.6916401318212,"Approved","OW442"
"2023-04-14 14:00",19.6936598736627,"Approved","OW442"
"2023-04-14 15:00",19.6946796155041,"Approved","OW442"
"2023-04-14 16:00",19.6956993573456,"Approved","OW442"
"2023-04-14 17:00",19.6967190991871,"Approved","OW442"
"2023-04-14 18:00",19.6977388410286,"Approved","OW442"
"2023-04-14 19:00",19.69675858287,"Approved","OW442"
"2023-04-14 20:00",19.6937783247115,"Approved","OW442"
"2023-04-14 21:00",19.692798066553,"Approved","OW442"
"2023-04-14 22:00",19.6918178083945,"Approved","OW442"
"2023-04-14 23:00",19.6918375502359,"Approved","OW442"
"2023-04-15 00:00",19.6908572920774,"Approved","OW442"
"2023-04-15 01:00",19.6908770339189,"Approved","OW442"
"2023-04-15 02:00",19.6908967757604,"Approved","OW442"
"2023-04-15 03:00",19.6919165176018,"Approved","OW442"
"2023-04-15 04:00",19.6939362594433,"Approved","OW442"
"2023-04-15 05:00",19.7029560012848,"Approved","OW442"
"2023-04-15 06:00",19.7089757431263,"Approved","OW442"
"2023-04-15 07:00",19.7119954849677,"Approved","OW442"
"2023-04-15 08:00",19.7160152268092,"Approved","OW442"
"2023-04-15 09:00",19.7170349686507,"Approved","OW442"
"2023-04-15 10:00",19.7140547104922,"Approved","OW442"
"2023-04-15 11:00",19.7090744523336,"Approved","OW442"
"2023-04-15 12:00",19.7090941941751,"Approved","OW442"
"2023-04-15 13:00",19.7091139360166,"Approved","OW442"
"2023-04-15 14:00",19.7091336778581,"Approved","OW442"
"2023-04-15 15:00",19.7101534196995,"Approved","OW442"
"2023-04-15 16:00",19.709173161541,"Approved","OW442"
"2023-04-15 17:00",19.7071929033825,"Approved","OW442"
"2023-04-15 18:00",19.706212645224,"Approved","OW442"
"2023-04-15 19:00",19.7042323870654,"Approved","OW442"
"2023-04-15 20:00",19.7022521289069,"Approved","OW442"
"2023-04-15 21:00",19.7002718707484,"Approved","OW442"
"2023-04-15 22:00",19.6992916125899,"Approved","OW442"
"2023-04-15 23:00",19.7003113544313,"Approved","OW442"
"2023-04-16 00:00",19.6993310962728,"Approved","OW442"
"2023-04-16 01:00",19.7013508381143,"Approved","OW442"
"2023-04-16 02:00",19.7023705799558,"Approved","OW442"
"2023-04-16 03:00",19.7023903217972,"Approved","OW442"
"2023-04-16 04:00",19.7014100636387,"Approved","OW442"
"2023-04-16 05:00",19.7004298054802,"Approved","OW442"
"2023-04-16 06:00",19.6994495473217,"Approved","OW442"
"2023-04-16 07:00",19.6984692891631,"Approved","OW442"
"2023-04-16 08:00",19.6974890310046,"Approved","OW442"
"2023-04-16 09:00",19.6955087728461,"Approved","OW442"
"2023-04-16 10:00",19.6935285146876,"Approved","OW442"
"2023-04-16 11:00",19.691548256529,"Approved","OW442"
"2023-04-16 12:00",19.6895679983705,"Approved","OW442"
"2023-04-16 13:00",19.687587740212,"Approved","OW442"
"2023-04-16 14:00",19.6856074820535,"Approved","OW442"
"2023-04-16 15:00",19.6826272238949,"Approved","OW442"
"2023-04-16 16:00",19.6816469657364,"Approved","OW442"
"2023-04-16 17:00",19.6786667075779,"Approved","OW442"
"2023-04-16 18:00",19.6756864494194,"Approved","OW442"
"2023-04-16 19:00",19.6717061912608,"Approved","OW442"